Back to catalog

ONEWEB-0065

AliveCommunicationsPO
NORAD 45164·PAYLOAD·🇬🇧 United Kingdom

Launched Feb 6, 2020 from Baikonur Cosmodrome

Loading…

Next Passes (next 24 hours)

TLE

FreshSource: CelesTrak SupGP

Epoch: Sep 14, 2026, 11:22 UTC

1 45164C 20008AK  26257.47378887 -.00004556  00000+0 -13067-1 0  2570
2 45164  87.8916  18.5002 0001768 111.9505   0.9561 13.10378195    11

Track ONEWEB-0065 in real time with AllMySat

Download on the App Store